Probability
0 0 0 0 0 0 0 0 0 0 0 0 0 0 0 0 0 0 0 0 0 0 0 0 0 0 0 0 0 0 0 0 0 0 0 0 0 0 0 0 0 0 0 0
0 0 0 0 0 0 0 0 0 0 0 0 0 0 0 0 0 0 0 0 0 0 0 0 0 0 0 0 0 0 0 0 0 0 0 0 0 0 0 0 0 0 0 0
0 0 0 0 0 0 0 0 0 0 0 0 0 0 0 0 0 0 0 0 0 0 0 0 0 0 0 0 0 0 0 0 0 0 0 0 0 0 0 0 0 0 0 0
0 0 0 0 0 0 0 0 0 0 0 0 0 0 0 0 0 0 0 0 0 0 0 0 0 0 0 0 0 0 0 0 0 0 0 0 0 0 0 0 0 0 0 0
0 0 0 0 0 0 0 0 0 0 0 0 0 0 0 0 0 0 0 0 0 0 0 0 0 0 0 0 0 0 0 0 0 0 0 0 0 0 0 0 0 0 0 0
0 0 0 0 0 0 0 0 0 0 0 0 0 0 0 0 0 0 0 0 0 0 0 0 0 0 0 0 0 0 0 0 0 0 0 0 0 0 0 0 0 0 0 0
0 0 0 0 0 0 0 0 0 0 0 0 0 0 0 0 0 0 0 0 0 0 0 0 0 0 0 0 0 0 0 0 0 0 0 0 0 0 0 0 0 0 0 0
0 0 0 0 0 0 0 0 0 0 0 0 0 0 0 0 0 0 0 0 0 0 0 0 0 0 0 0 0 0 0 0 0 0 0 0 0 0 0 0 0 0 0 0
0 0 0 0 0 0 0 0 0 0 0 0 0 0 0 0 0 0 0 0 0 0 0 0 0 0 0 0 0 0 0 0 0 0 0 0 0 0 0 0 0 0 0 0
0 0 0 0 0 0 0 0 0 0 0 0 0 0 0 0 0 0 0 0 0 0 0 0 0 0 0 0 0 0 0 0 0 0 0 0 0 0 0 0 0 0 0 0
0 0 0 0 0 0 0 0 0 0 0 0 0 0 0 0 0 0 0 0 0 0 0 0 0 0 0 0 0 0 0 0 0 0 0 0 0 0 0 0 0 0 0 0
0 0 0 0 0 0 0 0 0 0 0 0 0 0 0 0 0 0 0 0 0 0 0 0 0 0 0 0 0 0 0 0 0 0 0 0 0 0 0 0 0 0 0 0
0 0 0 0 0 0 0 0 0 0 0 0 0 0 0 0 0 0 0 0 0 0 0 0 0 0 0 0 0 0 0 0 0 0 0 0 0 0 0 0 0 0 0 0
0 0 0 0 0 0 0 0 0 0 0 0 0 0 0 0 0 0 0 0 0 0 0 0 0 0 0 0 0 0 0 0 0 0 0 0 0 0 0 0 0 0 0 0
0 0 0 0 0 0 0 0 0 0 0 0 0 0 0 0 0 0 0 0 0 0 0 0 0 0 0 0 0 0 0 0 0 0 0 0 0 0 0 0 0 0 0 0
0 0 0 0 0 0 0 0 0 0 0 0 0 0 0 0 0 0 0 0 0 0 0 0 0 0 0 0 0 0 0 0 0 0 0 0 0 0 0 0 0 0 0 0
0 0 0 0 0 0 0 0 0 0 0 0 0 0 0 0 0 0 0 0 0 0 0 0 0 0 0 0 0 0 0 0 0 0 0 0 0 0 0 0 0 0 0 0
0 0 0 0 0 0 0 0 0 0 0 0 0 0 0 0 0 0 0 0 0 0 0 0 0 0 0 0 0 0 0 0 0 0 0 0 0 0 0 0 0 0 0 0
0 0 0 0 0 0 0 0 0 0 0 0 0 0 0 0 0 0 0 0 0 0 0 0 0 0 0 0 0 0 0 0 0 0 0 0 0 0 0 0 0 0 0 0
0 0 0 0 0 0 0 0 0 0 0 0 0 0 0 0 0 0 0 0 0 0 0 0 0 0 0 0 0 0 0 0 0 0 0 0 0 0 0 0 0 0 0 0
0 0 0 0 0 0 0 0 0 0 0 0 0 0 0 0 0 0 0 0 0 0 0 0 0 0 0 0 0 0 0 0 0 0 0 0 0 0 0 0 0 0 0 0
0 0 0 0 0 0 0 0 0 0 0 0 0 0 0 0 0 0 0 0 0 0 0 0 0 0 0 0 0 0 0 0 0 0 0 0 0 0 0 0 0 0 0 0
0 0 0 0 0 0 0 0 0 0 0 0 0 0 0 0 0 0 0 0 0 0 0 0 0 0 0 0 0 0 0 0 0 0 0 0 0 0 0 0 0 0 0 0
0 0 0 0 0 0 0 0 0 0 0 0 0 0 0 0 0 0 0 0 0 0 0 0 0 0 0 0 0 0 0 0 0 0 0 0 0 0 0 0 0 0 0 0
0 0 0 0 0 0 0 0 0 0 0 0 0 0 0 0 0 0 0 0 0 0 0 0 0 0 0 0 0 0 0 0 0 0 0 0 0 0 0 0 0 0 0 0
0 0 0 0 0 0 0 0 0 0 0 0 0 0 0 0 0 0 0 0 0 0 0 0 0 0 0 0 0 0 0 0 0 0 0 0 0 0 0 0 0 0 0 0
Height
5677 5678 5678 5678 5679 5679 5680 5681 5683 5685 5685 5686 5688 5692 5694 5696 5698 5701 5703 5705 5707 5710 5712 5713 5715 5717 5719 5721 5722 5723 5725 5726 5727 5728 5729 5730 5730 5731 5731 5732 5733 5733 5733 5734
5672 5672 5672 5672 5672 5673 5673 5674 5676 5677 5678 5678 5680 5683 5686 5687 5690 5692 5694 5696 5699 5701 5703 5704 5706 5707 5709 5711 5713 5714 5715 5716 5717 5718 5719 5720 5721 5721 5722 5722 5722 5723 5723 5724
5665 5667 5666 5666 5666 5667 5667 5668 5669 5670 5670 5670 5672 5675 5679 5680 5681 5684 5685 5687 5689 5691 5693 5695 5696 5698 5700 5701 5703 5704 5705 5706 5707 5708 5709 5710 5710 5711 5712 5712 5712 5712 5713 5713
5659 5660 5660 5660 5660 5661 5661 5662 5662 5662 5663 5663 5665 5666 5672 5673 5674 5675 5677 5678 5680 5682 5683 5685 5687 5688 5690 5691 5692 5694 5695 5696 5697 5697 5698 5699 5700 5701 5701 5701 5702 5702 5702 5702
5654 5654 5654 5654 5655 5655 5655 5655 5655 5655 5655 5656 5657 5658 5663 5665 5666 5668 5668 5669 5671 5672 5674 5675 5677 5678 5680 5681 5682 5683 5685 5685 5686 5687 5688 5688 5689 5690 5690 5690 5691 5691 5691 5692
5649 5648 5648 5648 5648 5648 5648 5649 5649 5649 5649 5649 5652 5651 5654 5657 5659 5659 5660 5661 5662 5664 5665 5666 5667 5668 5670 5671 5672 5673 5674 5675 5676 5677 5677 5678 5678 5679 5679 5680 5680 5680 5680 5681
5643 5643 5642 5642 5642 5643 5643 5643 5643 5642 5642 5643 5645 5644 5647 5649 5650 5651 5652 5653 5653 5654 5656 5657 5658 5659 5660 5661 5662 5663 5664 5665 5665 5666 5666 5667 5667 5668 5668 5668 5669 5669 5669 5669
5636 5637 5637 5636 5636 5636 5636 5637 5637 5636 5636 5637 5637 5637 5641 5641 5641 5642 5643 5644 5645 5646 5647 5648 5649 5649 5650 5651 5652 5653 5654 5654 5655 5655 5656 5656 5657 5657 5657 5657 5657 5657 5658 5658
5630 5631 5631 5630 5630 5630 5630 5630 5630 5629 5628 5629 5630 5631 5633 5633 5633 5634 5635 5636 5637 5637 5638 5639 5640 5640 5641 5642 5642 5643 5643 5644 5644 5645 5645 5645 5646 5646 5646 5646 5646 5646 5646 5646
5624 5624 5625 5624 5624 5624 5624 5624 5624 5623 5622 5622 5623 5625 5626 5626 5627 5627 5627 5628 5628 5629 5629 5630 5630 5631 5631 5632 5632 5632 5632 5633 5633 5634 5634 5635 5635 5635 5635 5635 5635 5635 5635 5635
5618 5618 5618 5619 5619 5618 5619 5619 5617 5617 5616 5616 5616 5620 5619 5619 5619 5620 5620 5619 5619 5620 5620 5621 5621 5621 5621 5622 5622 5622 5622 5622 5623 5623 5624 5624 5624 5624 5624 5624 5624 5624 5624 5624
5612 5612 5611 5613 5612 5612 5612 5612 5612 5612 5611 5610 5609 5614 5612 5612 5611 5611 5611 5611 5611 5611 5611 5612 5612 5612 5612 5612 5612 5612 5612 5613 5613 5613 5613 5613 5613 5613 5614 5614 5614 5614 5614 5614
5606 5606 5605 5606 5608 5606 5605 5606 5605 5604 5604 5603 5602 5607 5605 5604 5604 5603 5603 5603 5603 5602 5602 5603 5603 5603 5603 5603 5603 5603 5603 5603 5603 5603 5603 5603 5603 5603 5603 5604 5604 5604 5604 5604
5599 5599 5600 5600 5599 5599 5599 5599 5599 5597 5597 5596 5597 5598 5599 5596 5596 5595 5594 5594 5594 5594 5594 5594 5594 5594 5594 5594 5594 5594 5594 5594 5594 5594 5594 5594 5594 5594 5593 5593 5594 5594 5593 5593
5592 5592 5592 5592 5592 5591 5591 5592 5591 5590 5590 5590 5590 5590 5591 5589 5588 5587 5586 5585 5585 5585 5585 5585 5585 5585 5585 5585 5585 5585 5585 5585 5584 5584 5584 5584 5584 5584 5584 5583 5583 5583 5583 5583
5585 5584 5584 5585 5585 5584 5584 5584 5584 5583 5583 5582 5582 5583 5583 5581 5579 5578 5578 5577 5577 5577 5576 5576 5576 5576 5576 5576 5575 5575 5575 5575 5575 5575 5575 5574 5574 5574 5574 5574 5574 5574 5573 5573
5577 5577 5576 5577 5577 5576 5576 5579 5578 5577 5576 5575 5574 5576 5574 5573 5571 5570 5570 5569 5569 5569 5568 5567 5567 5567 5566 5566 5566 5566 5566 5566 5565 5565 5565 5565 5565 5565 5564 5564 5564 5563 5563 5563
5570 5569 5568 5568 5569 5568 5573 5572 5570 5569 5569 5568 5567 5567 5566 5565 5563 5563 5562 5561 5561 5560 5559 5559 5558 5558 5557 5557 5557 5557 5556 5556 5556 5556 5556 5556 5555 5555 5555 5554 5553 5553 5553 5553
5563 5562 5561 5561 5560 5560 5564 5564 5563 5562 5562 5561 5560 5559 5558 5557 5556 5557 5555 5553 5552 5552 5551 5550 5550 5549 5549 5548 5548 5548 5548 5547 5547 5547 5546 5546 5545 5545 5545 5544 5544 5543 5543 5543
5556 5555 5555 5553 5552 5552 5557 5557 5555 5554 5554 5555 5552 5551 5550 5548 5548 5550 5547 5545 5545 5544 5543 5542 5541 5541 5541 5540 5540 5540 5539 5539 5538 5537 5537 5536 5535 5535 5535 5534 5534 5533 5533 5533
5548 5547 5547 5546 5544 5545 5549 5549 5547 5548 5548 5546 5544 5543 5542 5541 5541 5541 5539 5538 5537 5536 5535 5534 5533 5533 5532 5532 5531 5531 5531 5530 5529 5528 5527 5526 5526 5525 5524 5524 5523 5523 5523 5523
5540 5539 5539 5539 5538 5541 5541 5540 5540 5540 5538 5537 5537 5535 5534 5533 5533 5532 5531 5530 5529 5528 5527 5526 5525 5524 5524 5523 5523 5523 5522 5521 5521 5520 5519 5518 5517 5516 5515 5514 5514 5513 5513 5512
5533 5533 5532 5533 5534 5533 5533 5532 5532 5531 5530 5530 5529 5528 5527 5526 5525 5524 5523 5522 5521 5520 5519 5518 5517 5517 5516 5515 5515 5514 5514 5513 5512 5511 5510 5509 5508 5507 5506 5505 5504 5503 5503 5503
5526 5525 5525 5525 5526 5526 5525 5525 5524 5523 5523 5522 5521 5521 5520 5519 5518 5517 5515 5515 5514 5513 5512 5511 5510 5509 5508 5507 5507 5506 5506 5505 5504 5503 5502 5501 5500 5499 5497 5496 5496 5495 5494 5494
5519 5518 5517 5518 5519 5518 5518 5517 5517 5516 5516 5515 5514 5514 5513 5512 5510 5509 5508 5507 5506 5505 5505 5504 5503 5502 5501 5500 5499 5498 5498 5497 5496 5495 5494 5493 5492 5490 5489 5488 5487 5486 5486 5484
5513 5512 5511 5512 5512 5511 5511 5511 5510 5509 5509 5508 5507 5507 5505 5504 5503 5502 5501 5500 5499 5499 5498 5497 5496 5495 5494 5493 5492 5491 5490 5490 5489 5488 5487 5485 5484 5483 5482 5481 5480 5478 5477 5476
Wind_Speed
26 26 25 26 27 27 27 28 29 30 32 33 33 33 33 34 34 35 35 36 36 37 37 37 38 38 38 38 39 39 40 40 40 40 40 40 41 41 41 42 42 42 42 43
26 25 25 25 26 26 26 27 27 28 30 32 33 33 33 33 34 34 35 35 36 37 38 38 38 38 38 39 39 40 40 41 41 41 42 42 42 42 42 43 43 44 44 43
25 25 25 26 26 27 26 27 27 28 29 31 32 33 32 33 33 34 34 35 36 37 38 39 39 40 40 40 40 40 41 41 42 42 43 43 44 44 44 44 45 45 45 45
24 25 26 26 27 27 27 26 27 28 29 30 31 33 32 33 33 34 34 34 35 36 38 38 39 39 39 40 40 41 42 42 42 43 43 44 44 44 44 45 45 45 45 45
24 25 26 27 26 26 26 26 26 27 29 30 30 33 32 31 32 33 33 34 35 36 36 37 38 38 39 40 41 41 41 41 42 43 43 44 44 44 45 45 45 45 46 46
25 25 26 26 26 26 25 26 27 28 29 30 28 31 31 31 31 32 33 33 34 35 36 36 37 37 37 39 40 40 40 40 41 42 43 44 44 44 45 46 46 46 47 47
25 25 25 25 26 26 26 26 27 28 28 29 28 30 30 30 31 31 32 33 34 34 34 35 36 37 37 38 39 39 40 40 40 40 41 42 42 43 44 45 46 46 46 46
25 24 25 25 25 26 25 26 27 29 29 28 28 29 28 28 29 30 31 32 33 33 34 34 35 37 37 38 39 39 40 40 41 41 40 40 40 41 41 42 43 43 43 43
24 23 24 24 24 25 25 25 26 28 30 29 28 28 27 27 27 28 29 30 32 33 33 34 35 36 36 37 38 39 40 40 41 41 40 39 39 39 39 40 41 41 42 42
24 24 23 23 23 24 25 25 26 27 29 30 29 27 27 27 27 27 28 29 30 31 32 33 34 34 35 36 38 39 39 39 39 39 39 39 38 39 40 40 40 40 41 40
24 24 23 23 23 23 23 24 25 26 27 28 28 27 26 27 26 27 29 30 31 31 32 31 32 33 34 35 36 37 38 38 38 38 38 38 38 38 39 40 40 40 39 39
24 24 24 23 23 23 23 23 24 25 26 28 29 27 26 26 27 28 29 30 31 32 32 31 31 32 33 34 34 35 36 37 38 38 38 39 39 39 39 39 39 39 38 38
24 25 25 24 24 24 24 23 24 25 27 28 29 28 27 27 28 28 29 30 31 32 32 31 32 32 33 33 33 33 35 36 37 38 38 38 38 39 38 39 38 38 38 38
27 27 26 26 25 26 25 24 25 26 28 29 28 28 27 29 29 29 29 30 31 32 32 32 32 32 32 32 32 33 34 35 35 36 37 37 38 38 38 38 37 37 37 38
28 29 28 28 27 27 27 26 26 27 28 29 28 28 27 28 28 29 29 30 31 32 33 33 32 32 32 32 33 34 33 34 34 34 35 35 36 36 36 37 37 37 37 37
29 29 29 29 28 28 28 27 28 28 28 29 29 28 27 28 29 29 30 30 31 31 32 32 33 32 32 33 33 33 33 33 33 34 34 35 35 35 36 36 36 36 36 36
28 29 29 30 29 30 29 28 28 28 28 29 29 29 29 29 29 29 29 30 30 30 31 31 32 31 32 32 33 33 33 33 33 33 34 34 34 35 36 36 36 36 36 35
29 30 31 31 31 31 29 28 27 27 28 28 29 29 30 29 28 28 29 29 29 29 29 30 31 31 32 32 32 32 33 33 33 33 34 34 35 36 36 36 36 36 35 35
29 30 31 31 31 31 29 28 27 27 27 28 29 29 29 29 28 27 27 28 29 29 29 29 29 30 30 31 31 31 31 32 32 33 34 35 35 35 35 35 35 35 35 35
29 29 29 30 31 30 29 27 28 28 29 27 28 28 28 28 28 27 27 27 27 28 28 28 28 29 30 30 30 30 30 31 32 32 33 34 34 34 34 35 35 35 35 34
28 29 29 29 30 30 28 27 28 29 29 28 28 27 28 28 27 27 27 27 28 28 28 28 28 29 30 30 30 30 30 31 31 32 32 32 32 33 33 33 34 34 34 34
28 29 29 28 29 28 27 28 28 28 28 28 27 27 27 27 27 28 28 28 28 28 28 28 28 28 28 29 30 30 30 30 30 31 31 31 31 31 31 31 32 32 32 32
28 29 29 29 28 27 27 28 28 28 27 27 27 27 27 27 27 28 28 28 28 27 27 27 27 27 27 28 28 29 29 29 30 30 30 30 29 30 30 30 30 30 30 31
27 28 28 27 26 27 27 27 27 27 27 26 26 26 26 27 27 27 26 26 26 26 26 26 26 26 26 27 28 28 28 28 28 28 28 29 30 30 29 29 29 29 29 29
26 27 26 25 26 26 26 26 27 27 27 26 26 26 26 26 26 25 25 24 25 25 25 25 25 25 26 26 26 26 26 26 27 27 27 28 28 28 28 28 27 27 27 28
25 26 26 25 25 26 26 26 26 26 26 26 26 26 25 25 24 24 24 24 24 24 24 24 24 25 25 24 24 24 25 25 25 25 25 25 25 25 26 25 25 25 25 26
Wind_Direction
271 271 269 265 264 265 265 262 257 255 256 255 253 252 253 252 253 252 252 254 254 253 253 253 254 255 254 255 257 258 259 259 261 261 260 260 261 262 263 264 265 265 266 267
270 270 268 265 264 266 266 263 261 260 259 258 256 254 252 252 255 256 257 256 256 255 255 255 256 256 256 256 257 258 258 259 260 260 261 261 262 262 264 264 265 266 266 267
272 271 268 266 266 267 268 266 265 264 262 261 259 255 253 254 256 257 258 258 258 257 256 256 257 258 258 258 258 258 259 260 260 261 261 262 262 263 263 264 265 266 266 266
275 272 269 268 268 270 269 267 267 266 264 262 262 260 254 255 256 258 259 258 258 258 257 257 257 258 257 259 259 260 260 261 261 262 263 263 264 264 264 264 265 266 267 267
277 274 271 269 268 270 270 267 266 266 266 265 264 264 259 257 258 259 260 258 258 259 259 259 258 257 257 258 259 260 260 262 263 264 264 264 265 265 265 266 266 266 267 267
278 275 272 270 268 268 269 268 267 268 268 268 267 267 265 261 260 261 260 259 259 260 260 259 258 258 257 259 259 260 261 263 264 264 264 264 265 266 265 266 266 267 267 268
278 276 274 271 269 268 269 268 269 269 269 271 270 268 268 266 263 262 260 260 261 262 262 260 259 259 259 260 260 261 263 263 263 264 265 265 266 267 267 267 267 268 268 268
280 277 274 273 271 270 269 268 270 271 271 273 272 271 271 269 267 265 264 262 262 262 263 261 261 261 261 261 261 262 264 264 264 265 266 266 266 267 269 269 269 269 268 268
283 279 274 272 272 271 268 268 271 273 273 273 273 273 271 270 270 268 266 265 264 264 264 263 262 261 261 262 263 264 265 266 266 267 267 266 267 268 268 269 268 269 268 268
281 279 277 274 273 271 270 271 271 272 274 274 274 274 273 272 271 269 268 267 266 266 265 264 263 263 263 264 264 265 265 265 266 266 267 267 267 267 268 268 268 269 269 268
280 279 278 275 274 274 273 272 272 272 274 275 277 276 275 273 272 271 268 268 267 267 267 265 264 264 265 265 266 265 265 265 265 265 265 265 266 267 268 268 268 269 268 268
278 278 276 275 274 273 271 271 272 273 274 274 275 277 276 276 275 273 270 269 268 268 267 266 266 266 266 266 267 266 265 266 266 265 266 266 266 267 268 268 268 268 268 268
275 276 277 274 274 273 272 271 271 272 273 274 276 279 280 277 275 273 271 270 269 269 268 268 268 267 267 267 267 267 267 267 266 267 267 268 268 268 269 269 269 269 269 269
273 274 275 275 276 275 274 272 271 271 274 276 278 280 278 277 275 273 272 271 270 271 272 271 270 269 268 267 268 269 269 268 267 268 268 269 269 270 270 270 269 270 271 270
273 273 273 273 274 274 273 272 272 272 274 277 279 280 280 278 276 273 272 272 271 272 273 273 271 269 267 268 269 269 269 270 269 269 269 270 270 270 271 271 270 271 271 270
272 272 272 272 273 272 272 273 274 274 275 277 277 279 282 280 277 275 274 273 272 273 274 273 273 272 270 270 270 270 271 271 271 270 270 271 271 271 271 270 270 271 272 271
272 272 271 271 272 272 271 274 275 275 276 277 277 279 279 280 279 277 276 276 276 276 276 274 273 272 271 271 271 271 271 272 271 271 271 271 271 272 273 272 271 271 272 272
272 271 271 271 271 271 273 274 275 274 274 276 278 278 279 279 278 278 278 278 277 278 276 274 273 272 272 272 272 273 272 272 271 271 272 272 272 273 274 274 272 271 272 272
271 270 270 270 272 272 273 275 275 275 274 276 278 278 277 277 278 278 279 278 278 278 277 275 274 273 274 274 274 274 273 273 272 273 273 273 274 274 273 273 272 272 272 272
271 269 269 270 272 273 275 276 276 276 276 278 279 278 277 277 278 279 279 280 279 279 277 276 275 274 274 275 275 274 275 275 275 276 276 275 275 274 273 272 272 271 271 272
272 268 267 268 269 271 274 276 277 277 279 279 279 280 279 278 279 279 281 281 280 280 279 278 278 277 275 275 274 275 277 276 276 277 277 277 276 276 274 273 272 272 272 272
270 269 268 268 270 272 274 275 277 278 278 278 278 279 279 279 279 279 280 281 281 280 279 279 278 278 277 275 276 277 277 277 277 277 277 277 277 277 275 275 274 274 273 274
269 269 269 269 270 272 273 274 276 277 278 277 278 277 278 279 280 280 280 280 280 279 279 279 279 279 279 278 278 278 277 277 277 277 277 278 278 278 277 276 276 275 274 275
271 270 270 270 270 271 273 275 276 276 276 277 278 279 280 280 280 280 280 279 278 278 278 279 280 281 281 281 280 279 278 277 278 277 278 279 281 280 279 279 278 277 276 276
272 272 271 269 271 272 273 275 275 273 274 276 278 280 281 280 280 280 280 279 279 279 280 280 281 283 284 283 281 281 279 278 278 279 279 281 282 282 280 280 280 279 277 276
269 271 271 270 272 273 274 275 275 274 275 277 278 279 280 280 281 281 280 279 279 279 280 281 282 283 284 283 282 281 281 280 280 280 281 282 282 282 282 281 282 281 279 277